Location: Hopville
(44.8032°N, 123.1329°W)
Time: 15:33:41
(UTC+00:00)

Cosmos 2278 Rocket - Pass Details

Date: 24 January 2021
Orbit: 840 x 847 km, 71.0° (Epoch: 28 February)

Event Time Altitude Azimuth Distance (km) Brightness Sun altitude
Exits shadow 12:45:51 66° 64° (ENE) 923 2.4 -30.7°
Drops below altitude 10° 12:51:26 10° 144° (SE) 2,461 5.0 -29.7°
Sets 12:53:54 0° 148° (SSE) 3,392 5.7 -29.3°
